ALK131 VCBI-VOTR

Flight info

Callsign ALK131
Flight time 0h 46m
Altitude 30000
Route ATETA2D ATETA T4 TTR
Aircraft A20N/M-SDE2E3FGHIRWXY/LB1

Departure

Time 2026-04-22 17:49
Airport Bandaranaike International Colombo Airport (VCBI)

Arrival

Time 2026-04-22 18:35
Airport Tiruchirappalli International Airport (VOTR)
Time Latitude Longitude Altitude Speed Heading
2026-04-22 17:36 7.17648 79.88522 27 ft 0 kts 217°
2026-04-22 17:39 7.17657 79.88529 27 ft 2 kts 217°
2026-04-22 17:40 7.17670 79.88539 27 ft 2 kts 220°
2026-04-22 17:40 7.17683 79.88550 27 ft 2 kts 221°
2026-04-22 17:40 7.17695 79.88561 27 ft 2 kts 224°
2026-04-22 17:40 7.17707 79.88573 27 ft 2 kts 229°
2026-04-22 17:41 7.17717 79.88586 27 ft 2 kts 239°
2026-04-22 17:41 7.17723 79.88601 27 ft 2 kts 264°
2026-04-22 17:41 7.17721 79.88617 27 ft 2 kts 302°
2026-04-22 17:41 7.17718 79.88622 27 ft 0 kts 307°
2026-04-22 17:43 7.17718 79.88621 27 ft 1 kts 307°
2026-04-22 17:43 7.17731 79.88605 27 ft 5 kts 307°
2026-04-22 17:43 7.17762 79.88563 27 ft 10 kts 307°
2026-04-22 17:43 7.17801 79.88509 27 ft 13 kts 307°
2026-04-22 17:44 7.17851 79.88445 27 ft 8 kts 306°
2026-04-22 17:44 7.17845 79.88388 27 ft 10 kts 242°
2026-04-22 17:44 7.17783 79.88348 27 ft 12 kts 216°
2026-04-22 17:44 7.17705 79.88289 27 ft 16 kts 217°
2026-04-22 17:45 7.17644 79.88242 27 ft 18 kts 217°
2026-04-22 17:45 7.17501 79.88131 27 ft 21 kts 217°
2026-04-22 17:45 7.17374 79.88036 27 ft 24 kts 217°
2026-04-22 17:45 7.17235 79.87930 27 ft 26 kts 216°
2026-04-22 17:46 7.17085 79.87814 27 ft 28 kts 218°
2026-04-22 17:46 7.16972 79.87728 27 ft 9 kts 217°
2026-04-22 17:46 7.16911 79.87681 27 ft 13 kts 217°
2026-04-22 17:46 7.16843 79.87625 27 ft 11 kts 231°
2026-04-22 17:47 7.16854 79.87567 27 ft 0 kts 308°
2026-04-22 17:47 7.16861 79.87558 28 ft 4 kts 308°
2026-04-22 17:47 7.16884 79.87529 28 ft 7 kts 308°
2026-04-22 17:47 7.16926 79.87488 29 ft 10 kts 338°
2026-04-22 17:48 7.16968 79.87499 29 ft 11 kts 40°
2026-04-22 17:48 7.17079 79.87583 28 ft 27 kts 37°
2026-04-22 17:48 7.17427 79.87853 28 ft 97 kts 37°
2026-04-22 17:48 7.18115 79.88382 28 ft 149 kts 37°
2026-04-22 17:49 7.19037 79.89084 401 ft 176 kts 38°
2026-04-22 17:49 7.20071 79.89833 1120 ft 188 kts 37°
2026-04-22 17:49 7.21222 79.90585 1813 ft 209 kts 22°
2026-04-22 17:49 7.22467 79.90758 2299 ft 230 kts 352°
2026-04-22 17:50 7.24070 79.90309 3007 ft 250 kts 337°
2026-04-22 17:50 7.25696 79.89570 3730 ft 265 kts 334°
2026-04-22 17:50 7.27392 79.88751 4257 ft 274 kts 335°
2026-04-22 17:50 7.29172 79.88063 4998 ft 275 kts 351°
2026-04-22 17:51 7.31087 79.88016 5840 ft 276 kts
2026-04-22 17:51 7.33012 79.88224 6731 ft 279 kts
2026-04-22 17:51 7.34953 79.88423 7675 ft 281 kts
2026-04-22 17:51 7.36918 79.88553 8641 ft 284 kts
2026-04-22 17:52 7.38906 79.88625 9586 ft 288 kts
2026-04-22 17:52 7.40933 79.88654 10405 ft 296 kts
2026-04-22 17:52 7.43079 79.88658 10760 ft 319 kts
2026-04-22 17:52 7.45378 79.88655 11082 ft 341 kts
2026-04-22 17:53 7.47744 79.88653 11786 ft 346 kts
2026-04-22 17:53 7.50168 79.88653 12608 ft 350 kts
2026-04-22 17:53 7.52587 79.88655 13348 ft 356 kts
2026-04-22 17:53 7.55110 79.88659 13519 ft 357 kts
2026-04-22 17:54 7.57598 79.88663 13658 ft 358 kts
2026-04-22 17:54 7.60092 79.88668 13774 ft 359 kts
2026-04-22 17:54 7.62594 79.88672 13880 ft 359 kts
2026-04-22 17:54 7.65102 79.88676 13877 ft 361 kts
2026-04-22 17:55 7.66808 79.88679 14010 ft 363 kts
2026-04-22 17:55 7.70143 79.88433 14958 ft 365 kts 352°
2026-04-22 17:55 7.72668 79.88059 15652 ft 369 kts 352°
2026-04-22 17:55 7.75228 79.87689 16305 ft 373 kts 352°
2026-04-22 17:56 7.77810 79.87318 16962 ft 377 kts 353°
2026-04-22 17:56 7.80429 79.86942 17579 ft 382 kts 353°
2026-04-22 17:56 7.83075 79.86561 18203 ft 386 kts 353°
2026-04-22 17:56 7.85749 79.86175 18742 ft 390 kts 352°
2026-04-22 17:57 7.88443 79.85787 19281 ft 393 kts 352°
2026-04-22 17:57 7.91169 79.85393 19823 ft 397 kts 352°
2026-04-22 17:57 7.93884 79.85002 20361 ft 401 kts 352°
2026-04-22 17:57 7.96664 79.84600 20898 ft 404 kts 352°
2026-04-22 17:58 7.99465 79.84196 21429 ft 408 kts 352°
2026-04-22 17:58 8.02290 79.83788 21956 ft 412 kts 352°
2026-04-22 17:58 8.05149 79.83375 22459 ft 417 kts 352°
2026-04-22 17:58 8.08028 79.82959 22996 ft 420 kts 352°
2026-04-22 17:59 8.10938 79.82539 23496 ft 424 kts 352°
2026-04-22 17:59 8.13878 79.82114 23888 ft 428 kts 352°
2026-04-22 17:59 8.16847 79.81684 24316 ft 432 kts 352°
2026-04-22 17:59 8.19798 79.81257 24734 ft 435 kts 352°
2026-04-22 18:00 8.21825 79.80964 25007 ft 438 kts 352°
2026-04-22 18:00 8.25847 79.80382 25526 ft 443 kts 351°
2026-04-22 18:00 8.28908 79.79938 25917 ft 447 kts 351°
2026-04-22 18:00 8.32005 79.79490 26283 ft 450 kts 351°
2026-04-22 18:01 8.35118 79.79039 26667 ft 454 kts 351°
2026-04-22 18:01 8.38263 79.78583 27029 ft 457 kts 351°
2026-04-22 18:01 8.41393 79.77966 27380 ft 460 kts 342°
2026-04-22 18:01 8.44386 79.76797 27733 ft 462 kts 335°
2026-04-22 18:02 8.47310 79.75513 28079 ft 466 kts 335°
2026-04-22 18:02 8.50330 79.74178 28426 ft 469 kts 335°
2026-04-22 18:02 8.53281 79.72868 28756 ft 472 kts 335°
2026-04-22 18:02 8.56297 79.71526 29091 ft 475 kts 335°
2026-04-22 18:03 8.59330 79.70174 29423 ft 478 kts 334°
2026-04-22 18:03 8.62388 79.68811 29739 ft 481 kts 334°
2026-04-22 18:03 8.65456 79.67443 29846 ft 482 kts 334°
2026-04-22 18:04 8.71598 79.64705 29865 ft 482 kts 334°
2026-04-22 18:04 8.77737 79.61966 29864 ft 481 kts 334°
2026-04-22 18:05 8.83819 79.59252 29866 ft 481 kts 334°
2026-04-22 18:05 8.89941 79.56519 29866 ft 480 kts 334°
2026-04-22 18:06 8.96061 79.53786 29864 ft 480 kts 334°
2026-04-22 18:06 9.02183 79.51051 29865 ft 480 kts 334°
2026-04-22 18:07 9.07255 79.48784 29865 ft 480 kts 334°
2026-04-22 18:07 9.14361 79.45607 29862 ft 480 kts 334°
2026-04-22 18:08 9.20482 79.42870 29862 ft 479 kts 334°
2026-04-22 18:08 9.26547 79.40157 29777 ft 477 kts 334°
2026-04-22 18:08 9.29577 79.38800 29344 ft 473 kts 334°
2026-04-22 18:09 9.32570 79.37461 28779 ft 469 kts 334°
2026-04-22 18:09 9.35554 79.36125 28158 ft 464 kts 334°
2026-04-22 18:09 9.38497 79.34807 27577 ft 459 kts 334°
2026-04-22 18:09 9.41403 79.33505 26973 ft 454 kts 335°
2026-04-22 18:10 9.44281 79.32215 26386 ft 450 kts 335°
2026-04-22 18:10 9.47091 79.30956 25822 ft 445 kts 335°
2026-04-22 18:10 9.49917 79.29689 25257 ft 441 kts 335°
2026-04-22 18:10 9.52705 79.28438 24686 ft 437 kts 335°
2026-04-22 18:11 9.55475 79.27196 24140 ft 433 kts 335°
2026-04-22 18:11 9.57297 79.26379 23777 ft 430 kts 335°
2026-04-22 18:11 9.60027 79.25154 23216 ft 426 kts 335°
2026-04-22 18:11 9.62727 79.23941 22634 ft 421 kts 335°
2026-04-22 18:12 9.65392 79.22745 22055 ft 416 kts 335°
2026-04-22 18:12 9.68030 79.21560 21476 ft 412 kts 336°
2026-04-22 18:12 9.70639 79.20389 20910 ft 407 kts 336°
2026-04-22 18:12 9.73216 79.19231 20362 ft 403 kts 336°
2026-04-22 18:13 9.75767 79.18085 19808 ft 399 kts 336°
2026-04-22 18:13 9.78265 79.16963 19272 ft 395 kts 336°
2026-04-22 18:13 9.80771 79.15837 18756 ft 391 kts 336°
2026-04-22 18:13 9.83254 79.14721 18236 ft 387 kts 336°
2026-04-22 18:14 9.85714 79.13616 17638 ft 384 kts 336°
2026-04-22 18:14 9.88150 79.12521 17060 ft 381 kts 337°
2026-04-22 18:14 9.90563 79.11437 16487 ft 377 kts 337°
2026-04-22 18:14 9.92954 79.10363 15938 ft 374 kts 337°
2026-04-22 18:15 9.95323 79.09297 15393 ft 371 kts 337°
2026-04-22 18:15 9.97647 79.08253 14874 ft 368 kts 337°
2026-04-22 18:15 9.99985 79.07201 14354 ft 365 kts 337°
2026-04-22 18:15 10.02295 79.06162 13838 ft 362 kts 337°
2026-04-22 18:16 10.04591 79.05129 13300 ft 359 kts 338°
2026-04-22 18:16 10.06872 79.04104 12707 ft 356 kts 338°
2026-04-22 18:16 10.09110 79.03097 12157 ft 354 kts 338°
2026-04-22 18:16 10.11353 79.02087 11628 ft 351 kts 338°
2026-04-22 18:17 10.13583 79.01083 11088 ft 349 kts 338°
2026-04-22 18:17 10.15798 79.00086 10574 ft 347 kts 338°
2026-04-22 18:17 10.17996 78.99097 10177 ft 341 kts 338°
2026-04-22 18:17 10.20129 78.98135 10003 ft 328 kts 338°
2026-04-22 18:18 10.22178 78.97211 9889 ft 314 kts 339°
2026-04-22 18:18 10.24098 78.96345 9851 ft 298 kts 339°
2026-04-22 18:18 10.25981 78.95497 9853 ft 298 kts 339°
2026-04-22 18:18 10.27887 78.94642 9836 ft 299 kts 339°
2026-04-22 18:19 10.29776 78.93792 9665 ft 295 kts 339°
2026-04-22 18:19 10.31655 78.92947 9290 ft 294 kts 339°
2026-04-22 18:19 10.33520 78.92108 8896 ft 292 kts 338°
2026-04-22 18:19 10.35372 78.91275 8496 ft 291 kts 338°
2026-04-22 18:20 10.37221 78.90444 8105 ft 289 kts 338°
2026-04-22 18:20 10.39032 78.89628 7715 ft 287 kts 338°
2026-04-22 18:20 10.40850 78.88810 7336 ft 285 kts 338°
2026-04-22 18:20 10.42653 78.87998 6971 ft 283 kts 338°
2026-04-22 18:21 10.44448 78.87189 6659 ft 278 kts 337°
2026-04-22 18:21 10.46167 78.86413 6515 ft 261 kts 337°
2026-04-22 18:21 10.47771 78.85687 6389 ft 244 kts 337°
2026-04-22 18:21 10.49275 78.85008 6250 ft 229 kts 338°
2026-04-22 18:22 10.50701 78.84365 5980 ft 226 kts 337°
2026-04-22 18:22 10.52135 78.83719 5702 ft 225 kts 337°
2026-04-22 18:22 10.53560 78.83077 5447 ft 224 kts 337°
2026-04-22 18:22 10.54998 78.82429 5047 ft 226 kts 337°
2026-04-22 18:23 10.56433 78.81783 4645 ft 224 kts 336°
2026-04-22 18:23 10.57851 78.81143 4234 ft 223 kts 336°
2026-04-22 18:23 10.59264 78.80504 3823 ft 222 kts 337°
2026-04-22 18:24 10.62092 78.79227 3018 ft 223 kts 337°
2026-04-22 18:24 10.63511 78.78585 2617 ft 223 kts 337°
2026-04-22 18:24 10.66308 78.77323 2050 ft 210 kts 336°
2026-04-22 18:25 10.67617 78.76730 2009 ft 208 kts 336°
2026-04-22 18:25 10.68891 78.76154 2004 ft 194 kts 336°
2026-04-22 18:25 10.70065 78.75619 1997 ft 175 kts 337°
2026-04-22 18:26 10.72158 78.74671 2002 ft 164 kts 338°
2026-04-22 18:26 10.73179 78.74168 1989 ft 164 kts 322°
2026-04-22 18:26 10.73759 78.73216 2017 ft 161 kts 278°
2026-04-22 18:26 10.73936 78.72107 2001 ft 156 kts 274°
2026-04-22 18:27 10.74099 78.71022 2005 ft 156 kts 274°
2026-04-22 18:27 10.74266 78.69927 2001 ft 157 kts 274°
2026-04-22 18:27 10.74432 78.68814 2004 ft 160 kts 273°
2026-04-22 18:27 10.74780 78.67782 2002 ft 151 kts 310°
2026-04-22 18:28 10.75689 78.67360 2006 ft 146 kts
2026-04-22 18:28 10.76573 78.67746 2003 ft 135 kts 50°
2026-04-22 18:28 10.77029 78.68558 1717 ft 135 kts 89°
2026-04-22 18:28 10.76858 78.69474 1138 ft 143 kts 115°
2026-04-22 18:29 10.76550 78.70478 523 ft 156 kts 88°
2026-04-22 18:29 10.76576 78.71529 344 ft 132 kts 85°
2026-04-22 18:29 10.76661 78.72498 689 ft 147 kts 87°
2026-04-22 18:29 10.76597 78.73641 1248 ft 176 kts 101°
2026-04-22 18:30 10.76528 78.74922 1947 ft 196 kts 92°
2026-04-22 18:30 10.77269 78.77670 2007 ft 215 kts 48°
2026-04-22 18:30 10.78555 78.78419 2003 ft 223 kts 14°
2026-04-22 18:31 10.80100 78.78586 1994 ft 224 kts 356°
2026-04-22 18:31 10.81559 78.78047 2003 ft 227 kts 322°
2026-04-22 18:31 10.82508 78.76803 2009 ft 224 kts 290°
2026-04-22 18:31 10.82920 78.75300 2000 ft 218 kts 267°
2026-04-22 18:32 10.82646 78.73795 2005 ft 217 kts 251°
2026-04-22 18:32 10.82229 78.72317 1996 ft 217 kts 250°
2026-04-22 18:32 10.81816 78.70851 1826 ft 215 kts 250°
2026-04-22 18:32 10.81399 78.69389 1589 ft 214 kts 250°
2026-04-22 18:33 10.81031 78.67928 1514 ft 218 kts 256°
2026-04-22 18:33 10.80632 78.66470 1494 ft 210 kts 236°
2026-04-22 18:33 10.79604 78.65493 1509 ft 205 kts 200°
2026-04-22 18:33 10.78218 78.65320 1494 ft 199 kts 165°
2026-04-22 18:34 10.77047 78.66012 1469 ft 198 kts 132°
2026-04-22 18:34 10.76454 78.67265 1096 ft 203 kts 106°
2026-04-22 18:34 10.76408 78.68698 976 ft 207 kts 76°
2026-04-22 18:34 10.76580 78.70152 566 ft 208 kts 94°
2026-04-22 18:35 10.76596 78.71592 291 ft 194 kts 86°
2026-04-22 18:35 10.76668 78.72558 281 ft 63 kts 85°
2026-04-22 18:35 10.76701 78.72787 277 ft 29 kts 76°
2026-04-22 18:35 10.76700 78.72858 278 ft 8 kts 150°
2026-04-22 18:36 10.76672 78.72822 277 ft 8 kts 263°
2026-04-22 18:36 10.76693 78.72759 278 ft 11 kts 291°
2026-04-22 18:36 10.76695 78.72677 279 ft 13 kts 266°
2026-04-22 18:36 10.76688 78.72573 285 ft 17 kts 266°
2026-04-22 18:37 10.76680 78.72427 283 ft 24 kts 266°
2026-04-22 18:37 10.76667 78.72249 285 ft 27 kts 265°
2026-04-22 18:37 10.76653 78.72121 286 ft 28 kts 265°
2026-04-22 18:37 10.76628 78.71849 289 ft 30 kts 264°
2026-04-22 18:38 10.76607 78.71632 294 ft 32 kts 264°
2026-04-22 18:38 10.76585 78.71411 293 ft 32 kts 264°
2026-04-22 18:38 10.76576 78.71204 294 ft 11 kts 269°
2026-04-22 18:39 10.76569 78.71018 297 ft 15 kts 262°
2026-04-22 18:39 10.76546 78.70908 302 ft 14 kts 233°
2026-04-22 18:39 10.76479 78.70880 301 ft 12 kts 198°
2026-04-22 18:39 10.76386 78.70856 301 ft 14 kts 187°
2026-04-22 18:40 10.76373 78.70864 302 ft 5 kts 134°
2026-04-22 18:40 10.76311 78.70899 299 ft 14 kts 153°
2026-04-22 18:40 10.76233 78.70948 298 ft 10 kts 151°
2026-04-22 18:40 10.76207 78.70960 298 ft 5 kts 152°
2026-04-22 18:41 10.76166 78.70986 301 ft 9 kts 148°
2026-04-22 18:41 10.76119 78.70995 301 ft 6 kts 226°
2026-04-22 18:41 10.76093 78.70948 298 ft 7 kts 239°
2026-04-22 18:41 10.76092 78.70947 300 ft 0 kts 239°